Regional Weather Roundup
Issued by NWS Burlington, VT

Home | Current Version | Previous Version | Text Only | Print | Product List | Glossary On
Versions: 1 2 3 4 5 6 7 8 9 10 11 12 13 14 15 16 17 18 19 20 21 22 23 24 25 26 27 28 29 30 31 32 33 34 35 36 37 38 39 40 41 42 43 44 45 46 47 48 49 50
000
ASUS41 KBTV 270010
RWRBTV
VERMONT REGIONAL WEATHER ROUNDUP
NATIONAL WEATHER SERVICE BURLINGTON VT
700 PM EST SUN FEB 26 2017

NOTE: "FAIR" INDICATES FEW OR NO CLOUDS BELOW 12,000 FEET WITH NO
SIGNIFICANT WEATHER AND/OR OBSTRUCTIONS TO VISIBILITY.

* THESE REPORTS ARE NOT UNDER NWS QUALITY CONTROL AND/OR DO NOT
  REPORT WEATHER SUCH AS PRECIPITATION AND FOG.

VTZ001>019-270100-
_____VERMONT_____


CITY           SKY/WX    TMP DP  RH WIND       PRES   REMARKS
BURLINGTON     PTCLDY    31  12  45 W6        30.04R WCI  25
6HR MIN TEMP:  31; 6HR MAX TEMP:  35;

MONTPELIER     PTCLDY    26  10  50 W8        30.03R WCI  18
6HR MIN TEMP:  26; 6HR MAX TEMP:  31;

MORRISVILLE    CLEAR     24   9  52 CALM      30.02R
6HR MIN TEMP:  24; 6HR MAX TEMP:  30;

ST. JOHNSBURY*   N/A     26  11  52 MISG      30.00R
6HR MIN TEMP:  26; 6HR MAX TEMP:  31;

LYNDONVILLE*   FAIR      22  11  60 W3        30.00R
6HR MIN TEMP:  22; 6HR MAX TEMP:  28;

MIDDLEBURY*    FAIR      27   3  35 CALM      30.05R
6HR MIN TEMP:  27; 6HR MAX TEMP:  33;

RUTLAND*       CLEAR     30  14  51 W9G18     30.05R WCI  22
6HR MIN TEMP:  30; 6HR MAX TEMP:  32;

SPRINGFIELD    PTCLDY    31  11  43 NW10      30.05R WCI  22
6HR MIN TEMP:  30; 6HR MAX TEMP:  34;

HIGHGATE*      FAIR      24  17  75 CALM      30.03R
6HR MIN TEMP:  24; 6HR MAX TEMP:  30;

NEWPORT*       FAIR      23  10  57 CALM      30.00R
6HR MIN TEMP:  21; 6HR MAX TEMP:  27;

BENNINGTON     PTCLDY    30  17  58 W7G16     30.07R WCI  23
6HR MIN TEMP:  30; 6HR MAX TEMP:  34;

SUTTON*          N/A     16 N/A N/A MISG        N/A

_____LAKE CHAMPLAIN_____


CITY           SKY/WX    TMP DP  RH WIND       PRES   REMARKS
BURTON ISLAND*   N/A     30  19  64 SE5         N/A  WCI  25
COLCHESTER RF*   N/A     34  18  51 SW9         N/A  WCI  26
DIAMOND ISL*     N/A     34  14  44 SW6         N/A  WCI  29

$$

NYZ007-026>031-035-052-083-087-270100-
_____NORTHERN NEW YORK_____


CITY           SKY/WX    TMP DP  RH WIND       PRES   REMARKS
PLATTSBURGH    CLEAR     30  13  49 CALM      30.04R
6HR MIN TEMP:  29; 6HR MAX TEMP:  34; 6HR PCP: TRACE;

SARANAC LAKE   CLEAR     21  16  81 SW6       29.95R WCI  13
6HR MIN TEMP:  21; 6HR MAX TEMP:  27;

MASSENA        CLEAR     30  19  63 SW10      30.02R WCI  21
6HR MIN TEMP:  30; 6HR MAX TEMP:  35;

OGDENSBURG*    FAIR      32  23  69 SW12      30.02R WCI  23
6HR MIN TEMP:  32; 6HR MAX TEMP:  37;

POTSDAM*       CLEAR     28  21  74 SW8       30.02R WCI  20
WATERTOWN      MOCLDY    31  21  66 SW13G20   30.06S WCI  21
6HR MIN TEMP:  31; 6HR MAX TEMP:  36;

FT DRUM        CLEAR     29  20  67 SW6       30.03S WCI  23
6HR MIN TEMP:  29; 6HR MAX TEMP:  34; 6HR PCP: TRACE;

ALBANY         PTCLDY    31  19  61 W6        30.13R WCI  25
6HR MIN TEMP:  31; 6HR MAX TEMP:  38;

GLENS FALLS    CLEAR     32  14  47 SW3       30.09R
6HR MIN TEMP:  32; 6HR MAX TEMP:  36;


$$
NHZ002-005-011-270100-
_____NEW HAMPSHIRE_____


CITY           SKY/WX    TMP DP  RH WIND       PRES   REMARKS
LEBANON        CLOUDY    32  12  43 NW6       30.03R WCI  26
6HR MIN TEMP:  32; 6HR MAX TEMP:  37;

KEENE          PTCLDY    32  15  49 W7        30.06R WCI  26
6HR MIN TEMP:  31; 6HR MAX TEMP:  37;

MT WASHINGTON  FOG        1   1 100 W63G71      N/A  VSB 1/16WCI -32
6HR MIN TEMP:   0; 6HR MAX TEMP:   5; 6HR PCP: TRACE;

PLYMOUTH       FAIR      30  10  44 NW7       30.00R WCI  23
6HR MIN TEMP:  30; 6HR MAX TEMP:  36;

WHITEFIELD     CLEAR     25   9  50 VRB6      29.99R WCI  18
6HR MIN TEMP:  25; 6HR MAX TEMP:  31;


$$

_____REGIONAL QUEBEC LOCATIONS_____


CITY           SKY/WX    TMP DP  RH WIND       PRES   REMARKS
MONTREAL       CLEAR     28  12  50 SW7       30.01R WCI  21
QUEBEC CITY    CLEAR     21  12  68 W12       29.94R WCI   9
SHERBROOKE     CLEAR     18  10  73 SW6       29.99R WCI   9

_____REGIONAL ONTARIO LOCATIONS_____


CITY           SKY/WX    TMP DP  RH WIND       PRES   REMARKS
OTTAWA         PTCLDY    30  16  55 SW10      29.97R WCI  21

______KEY______
VSB  - VISIBILITY IN MILES
WCI  - WIND CHILL INDEX
HX   - HEAT INDEX
$$
NNNN



USA.gov is the U.S. government's official web portal to all federal, state and local government web resources and services.